Location: Newark
(49.9819°N, 3.0344°E)
Time: 21:49:48
(UTC+00:00)

ISS - Pass Details

Date: 02 February 2020
Orbit: 416 x 422 km, 51.6° (Epoch: 20 February)

Event Time Altitude Azimuth Distance (km) Brightness Sun altitude
Rises 18:17:09 0° 286° (WNW) 2,380 1.3 -15.3°
Reaches altitude 10° 18:19:15 10° 286° (WNW) 1,512 0.1 -15.6°
Maximum altitude 18:22:39 84° 198° (SSW) 430 -3.8 -16.1°
Enters shadow 18:23:50 38° 114° (ESE) 666 -3.2 -16.3°
